Location: Karwodrza
(49.9217°N, 21.0454°E)
Time: 06:43:44
(UTC+01:00)

ISS - Pass Details

Date: 28 January 2019
Orbit: 403 x 411 km, 51.6° (Epoch: 22 February)

Event Time Altitude Azimuth Distance (km) Brightness Sun altitude
Rises 19:07:15 0° 272° (W) 2,337 1.4 -26.3°
Reaches altitude 10° 19:09:21 10° 275° (W) 1,478 0.0 -26.7°
Enters shadow 19:10:48 23° 282° (WNW) 917 -1.4 -26.9°
